FLOCK 2K-35

Last updated on Wed Feb 14 2018 16:20:53 GMT+0000 (Coordinated Universal Time)

1 42877U 17042BE 18044.71505885 .00006745 00000-0 19635-3 0 9997 2 42877 96.9930 307.5900 0012027 178.8730 181.2544 15.35648120 32685
UTC large
Height (km)
Speed (km/s)
/
Latitude / Longitude
Inclination (degrees)
Orbital Period (minutes)
Azimuth
Elevation
Range (km)
Doppler Factor

Next 0 passes for location: London (51.5072 / 0.1276)

Sorry there are no passes over London.